Wind_Speed
25 26 26 26 26 26 26 27 27 27 27 27 28 28 27 26 26 26 26 26 26 26 27 27 28 28 28 28 28 28 28 28 27 26 25 25 26 26 26 26 26 26 25
27 27 27 27 27 27 27 27 27 28 28 27 27 28 27 27 26 26 26 26 26 26 26 27 28 28 28 28 28 28 27 27 27 27 25 25 26 26 26 26 26 26 26
28 28 28 28 27 27 28 28 28 29 28 27 27 27 27 27 27 27 27 27 26 26 26 27 27 27 28 28 28 28 28 28 28 27 26 26 27 27 27 26 26 26 26
28 29 29 29 28 28 29 30 29 29 28 28 28 28 28 28 28 27 27 27 27 27 27 27 27 28 28 27 27 27 28 28 28 28 27 26 27 27 26 27 27 27 26
28 29 30 29 28 28 29 30 30 29 29 28 28 28 28 29 29 28 28 28 27 27 27 28 28 27 27 27 28 28 28 27 28 28 27 27 27 27 27 27 28 27 27
29 29 29 29 29 28 28 29 29 29 29 29 28 28 28 29 28 28 27 27 27 28 28 28 28 28 27 26 27 28 28 27 27 27 27 27 28 28 27 28 28 28 28
29 29 29 29 29 29 29 29 28 28 28 28 29 29 29 29 28 28 27 27 27 27 28 28 28 28 28 27 27 27 28 27 27 27 27 28 28 28 28 28 28 28 28
30 30 30 30 29 29 28 29 29 28 28 28 28 29 30 29 28 28 27 27 28 28 28 28 28 28 28 28 28 27 27 27 27 28 27 27 28 28 28 28 28 28 28
31 31 30 29 29 28 29 29 29 29 28 28 28 28 27 28 28 27 27 28 28 28 28 28 29 28 28 28 27 27 27 27 27 27 27 27 27 28 28 28 28 28 28
30 31 30 29 29 29 29 29 30 29 28 27 27 27 26 27 26 27 28 28 28 28 28 28 28 28 28 28 28 28 28 28 28 28 28 27 27 27 27 27 27 28 28
30 30 30 30 29 29 29 28 28 28 27 27 26 26 26 26 26 27 27 28 28 28 28 28 27 27 28 28 28 27 28 29 29 28 28 28 27 26 27 27 27 27 27
31 30 29 29 29 29 28 27 27 27 27 27 27 27 27 27 27 27 28 27 27 27 27 27 27 27 27 28 28 28 28 28 29 28 28 28 27 27 27 27 27 27 27
30 30 29 29 28 28 28 27 26 25 26 27 27 28 28 27 27 27 27 27 27 27 27 27 27 28 27 28 28 28 28 27 27 27 28 28 27 27 27 28 28 27 28
30 30 29 28 27 27 27 26 25 26 26 27 27 27 27 28 27 27 27 27 26 26 26 27 27 28 29 29 29 29 28 28 27 27 28 28 28 27 27 27 28 29 28
29 28 27 27 27 27 27 27 26 26 26 26 26 26 26 27 27 27 27 26 26 26 26 27 28 28 29 29 29 29 29 29 28 28 28 28 29 28 28 28 28 29 29
27 27 26 26 26 27 27 27 26 26 25 26 26 27 26 26 27 27 27 26 26 27 27 27 28 28 28 29 29 29 30 29 29 28 29 28 28 28 28 29 29 29 29
27 26 26 26 26 26 27 27 27 27 26 26 26 27 27 27 27 27 27 26 26 27 27 27 28 28 28 28 29 30 30 30 30 29 28 28 29 29 29 29 29 29 29
27 26 26 25 25 25 25 26 26 27 27 27 27 27 27 27 27 27 27 27 27 27 27 28 28 28 28 28 29 29 30 30 30 30 29 28 28 28 29 29 29 30 30
26 26 25 25 25 25 25 25 25 25 26 26 26 26 26 26 27 27 27 27 27 27 26 26 27 27 27 28 28 28 29 30 30 30 30 29 29 28 28 28 28 29 29
26 25 25 25 25 25 25 25 25 25 25 25 25 26 26 27 28 28 28 28 27 27 26 26 26 26 27 28 28 28 29 29 30 31 31 30 30 29 28 28 28 29 29
26 25 25 25 26 25 25 25 24 24 24 24 24 25 25 25 26 27 27 27 27 26 26 26 27 27 27 28 28 29 29 29 30 30 31 31 30 29 29 28 29 29 30
26 26 25 25 25 25 24 24 23 23 23 24 24 24 25 25 25 25 25 26 27 26 26 26 26 27 27 28 28 28 28 28 29 29 30 30 30 30 30 30 29 29 29
25 25 25 25 24 24 24 24 24 23 23 24 24 23 23 24 24 24 25 26 27 27 27 26 27 27 27 27 27 27 27 27 28 29 30 30 30 30 30 30 30 30 30
24 24 24 24 24 23 23 24 24 24 23 24 24 23 23 23 23 24 25 26 26 27 27 26 26 26 26 26 27 27 27 27 27 28 29 28 28 28 29 29 29 30 30
23 23 23 23 23 23 23 24 24 23 23 23 23 23 23 23 24 24 24 25 25 26 26 26 26 26 26 26 26 25 25 25 26 26 26 26 26 27 27 28 29 29 29
23 23 22 22 23 23 23 23 23 22 22 22 22 23 23 24 24 24 24 24 25 25 26 26 25 25 25 24 24 23 24 24 24 24 25 25 26 27 28 28 28 29 29
Wind_Direction
281 281 282 284 284 283 283 284 285 284 282 281 280 279 277 277 278 278 278 278 277 275 274 273 273 271 268 267 266 266 267 268 267 266 264 261 260 260 261 262 262 262 262
282 282 283 283 284 283 283 284 284 284 284 282 279 279 277 277 277 276 277 277 277 275 274 274 275 273 271 268 266 266 267 267 264 264 263 264 263 260 259 260 261 260 261
283 283 282 282 283 284 284 285 285 285 283 281 278 279 278 277 277 276 276 276 277 276 274 274 275 274 273 270 265 265 266 266 264 262 262 264 265 262 260 260 260 261 261
284 283 283 282 282 283 285 286 286 285 283 282 279 278 278 277 276 275 275 275 276 275 275 274 274 274 272 269 266 264 265 265 264 262 261 262 263 262 262 261 262 263 263
283 283 284 283 282 284 285 285 285 285 283 281 280 279 277 276 276 275 275 275 275 275 275 275 274 273 272 268 266 264 264 265 264 262 261 262 263 264 263 262 262 262 262
284 284 285 284 283 283 284 284 285 284 283 281 279 279 278 278 277 275 275 275 275 274 274 274 274 272 270 269 268 266 264 264 264 262 261 263 264 264 263 263 262 262 263
284 284 285 285 283 282 282 283 284 284 283 282 280 279 279 278 277 274 276 276 276 275 275 275 274 273 270 270 269 267 265 263 262 261 261 263 263 263 262 262 262 261 262
285 285 284 283 283 283 283 283 283 283 282 282 281 280 279 278 277 275 276 276 276 275 274 273 274 273 271 269 268 267 266 264 262 260 261 262 262 263 263 262 261 259 260
286 286 286 284 282 282 282 282 282 281 280 279 280 280 280 279 278 277 277 278 277 276 273 272 272 272 272 269 268 267 267 265 263 260 260 262 261 262 261 261 259 259 259
288 287 286 284 283 283 282 282 281 279 276 277 278 279 280 280 281 280 279 278 277 276 273 272 270 271 271 269 267 267 266 265 264 261 260 263 261 260 261 261 259 258 259
290 289 286 285 284 284 282 282 280 278 276 277 278 279 280 281 282 282 281 279 276 274 273 272 272 271 271 269 268 266 265 265 263 262 260 260 259 259 260 260 260 259 260
290 290 288 286 284 283 281 279 279 278 276 276 277 278 279 279 280 281 282 281 277 275 273 271 271 272 271 269 269 269 267 267 263 260 258 258 259 260 261 262 260 260 260
291 290 288 287 286 282 281 280 279 277 277 276 276 277 277 277 279 280 281 281 279 276 274 272 270 271 272 270 269 269 268 266 263 259 257 257 258 260 261 262 260 258 260
291 290 287 286 285 285 283 280 277 277 277 277 276 275 276 277 277 277 279 280 279 277 275 273 272 271 271 270 270 271 269 266 265 261 258 258 257 259 261 261 260 259 260
292 290 287 285 284 284 283 281 279 277 277 277 276 276 277 277 277 277 277 278 277 276 276 274 273 273 272 270 269 269 269 267 265 263 260 257 258 260 262 262 261 261 261
292 289 286 285 284 283 283 281 280 278 276 277 277 278 279 280 277 276 276 275 276 275 276 275 274 273 272 270 268 269 269 267 264 263 261 258 259 261 262 262 262 262 261
294 290 287 285 285 283 279 280 280 278 276 276 278 279 279 279 278 277 276 275 276 274 274 274 273 273 272 270 269 269 267 266 265 263 262 260 260 261 262 261 262 263 261
292 290 287 286 285 284 280 279 280 280 279 278 278 278 278 276 277 277 277 276 276 275 274 273 272 271 270 270 271 269 266 265 264 262 262 261 260 261 261 261 262 263 261
292 290 287 286 285 285 283 282 282 281 280 280 280 279 278 276 276 278 279 279 278 277 277 276 275 273 271 270 271 270 267 266 264 262 261 261 260 261 260 260 261 261 261
291 290 287 286 286 286 286 284 283 283 283 283 281 280 279 278 277 278 280 280 279 278 278 277 275 274 273 272 271 271 268 265 263 262 262 262 261 261 260 259 259 259 259
290 289 288 287 287 286 286 285 284 284 284 284 283 283 282 282 280 279 280 280 279 278 278 278 276 275 275 275 274 272 269 265 264 263 262 262 261 261 261 258 259 259 259
289 288 286 286 287 287 287 286 285 283 283 284 284 285 284 284 282 280 280 281 281 280 280 279 278 277 276 276 276 274 270 266 264 262 261 260 260 260 260 258 258 259 259
289 289 287 287 287 286 285 287 287 285 284 284 285 285 285 285 285 283 282 282 280 281 281 280 279 278 278 277 277 274 270 268 265 263 260 259 260 260 258 257 257 258 259
290 289 288 287 287 286 286 288 288 287 284 284 285 285 285 285 285 286 285 283 281 282 281 281 280 280 280 279 278 274 272 269 267 263 259 258 259 259 258 257 257 257 258
289 289 289 288 287 287 287 288 289 289 286 284 284 285 285 285 286 287 287 286 284 284 284 286 284 282 282 281 279 276 273 271 269 265 259 258 259 260 259 258 258 258 258
290 290 289 288 287 288 288 288 289 290 288 286 285 286 286 287 288 289 289 289 286 284 284 286 286 284 283 282 279 276 273 270 267 265 263 261 262 263 261 260 260 259 260
Height
5786 5784 5783 5782 5781 5780 5779 5778 5776 5775 5773 5771 5770 5769 5768 5767 5766 5765 5764 5763 5762 5762 5761 5760 5760 5759 5759 5759 5759 5760 5760 5760 5760 5761 5761 5761 5762 5762 5763 5763 5764 5764 5765
5778 5777 5775 5774 5773 5772 5771 5769 5768 5766 5765 5763 5762 5761 5760 5759 5758 5757 5756 5755 5754 5753 5753 5752 5751 5751 5750 5750 5751 5751 5751 5751 5752 5752 5753 5753 5754 5754 5755 5755 5756 5757 5757
5770 5768 5767 5766 5765 5764 5763 5761 5760 5758 5756 5755 5753 5752 5751 5751 5750 5749 5748 5747 5746 5745 5744 5744 5743 5742 5742 5742 5742 5742 5742 5743 5743 5744 5745 5745 5745 5746 5747 5747 5748 5749 5749
5761 5760 5758 5757 5757 5755 5754 5753 5751 5749 5748 5746 5745 5744 5743 5742 5741 5740 5740 5739 5738 5737 5736 5735 5735 5734 5734 5734 5733 5734 5734 5734 5735 5736 5736 5737 5737 5737 5738 5739 5740 5741 5741
5753 5751 5749 5748 5747 5746 5745 5743 5742 5740 5739 5737 5736 5735 5734 5733 5732 5731 5731 5730 5729 5728 5728 5727 5726 5725 5725 5725 5725 5725 5725 5726 5726 5727 5728 5729 5729 5730 5730 5731 5732 5733 5733
5744 5742 5741 5739 5738 5736 5735 5734 5732 5731 5729 5728 5726 5725 5724 5723 5722 5722 5721 5721 5720 5720 5719 5718 5717 5716 5716 5716 5716 5716 5717 5717 5718 5719 5720 5721 5721 5722 5722 5723 5723 5724 5725
5735 5734 5732 5730 5728 5727 5726 5725 5723 5722 5720 5719 5717 5716 5715 5714 5713 5712 5712 5711 5711 5710 5710 5709 5708 5708 5707 5707 5707 5708 5708 5708 5710 5710 5711 5712 5713 5713 5714 5714 5715 5716 5717
5727 5725 5723 5721 5720 5718 5717 5715 5714 5713 5711 5710 5708 5707 5706 5704 5703 5703 5702 5702 5701 5701 5700 5700 5699 5699 5698 5699 5699 5699 5699 5700 5701 5701 5703 5703 5704 5704 5705 5706 5707 5707 5708
5718 5716 5713 5711 5710 5709 5708 5706 5704 5703 5702 5700 5699 5698 5697 5696 5695 5694 5693 5693 5692 5691 5691 5691 5690 5690 5690 5689 5689 5690 5690 5691 5691 5692 5693 5694 5694 5695 5696 5697 5698 5699 5700
5709 5707 5704 5702 5701 5700 5698 5697 5695 5694 5692 5691 5691 5689 5688 5688 5687 5686 5685 5684 5683 5683 5682 5682 5681 5681 5681 5680 5680 5681 5681 5682 5683 5683 5684 5685 5685 5686 5687 5688 5689 5690 5691
5700 5698 5696 5693 5692 5690 5689 5687 5686 5685 5684 5683 5682 5681 5680 5680 5679 5677 5676 5675 5674 5674 5673 5673 5673 5672 5672 5671 5671 5672 5672 5672 5673 5674 5675 5676 5677 5678 5678 5679 5680 5681 5682
5691 5689 5687 5685 5683 5681 5680 5678 5677 5676 5675 5674 5674 5673 5672 5671 5670 5669 5668 5666 5665 5665 5665 5664 5664 5664 5663 5663 5663 5662 5663 5663 5664 5665 5666 5667 5668 5669 5670 5671 5672 5673 5674
5682 5680 5678 5676 5674 5672 5671 5670 5669 5668 5667 5666 5665 5664 5663 5663 5662 5660 5659 5658 5657 5656 5656 5655 5655 5655 5654 5654 5654 5654 5654 5654 5655 5656 5658 5659 5660 5661 5662 5662 5663 5664 5664
5674 5672 5670 5668 5666 5664 5662 5661 5660 5659 5658 5657 5656 5655 5654 5653 5652 5652 5650 5649 5648 5647 5647 5646 5646 5646 5645 5645 5645 5645 5645 5646 5646 5647 5649 5650 5651 5652 5653 5653 5654 5654 5655
5665 5663 5661 5659 5658 5656 5654 5652 5651 5650 5648 5648 5647 5646 5645 5645 5643 5643 5642 5641 5640 5639 5638 5638 5637 5637 5636 5636 5636 5636 5636 5636 5637 5638 5639 5641 5642 5643 5644 5645 5645 5645 5646
5657 5655 5653 5651 5649 5648 5646 5644 5642 5641 5640 5639 5638 5638 5637 5636 5634 5633 5633 5632 5631 5630 5629 5629 5628 5628 5627 5627 5627 5627 5627 5627 5628 5629 5630 5631 5633 5634 5634 5635 5636 5637 5637
5649 5646 5644 5643 5641 5639 5637 5635 5634 5633 5631 5630 5630 5629 5628 5627 5626 5625 5624 5623 5622 5621 5621 5620 5619 5619 5618 5618 5618 5618 5618 5618 5619 5620 5621 5622 5623 5624 5625 5626 5627 5628 5628
5640 5638 5636 5634 5633 5631 5629 5627 5626 5625 5623 5622 5621 5620 5619 5618 5617 5616 5615 5614 5613 5612 5612 5611 5610 5610 5609 5609 5609 5609 5609 5609 5610 5611 5612 5613 5614 5615 5616 5617 5618 5618 5619
5632 5630 5628 5626 5624 5623 5621 5619 5618 5617 5615 5614 5613 5611 5610 5609 5608 5608 5607 5606 5605 5604 5603 5602 5602 5601 5600 5600 5600 5599 5599 5600 5600 5601 5602 5604 5605 5606 5606 5607 5608 5609 5610
5624 5622 5620 5618 5616 5615 5613 5611 5610 5609 5607 5606 5605 5603 5602 5601 5600 5599 5598 5597 5596 5595 5594 5594 5593 5592 5591 5591 5591 5590 5590 5591 5591 5592 5593 5594 5595 5596 5597 5598 5599 5600 5600
5616 5614 5612 5610 5609 5607 5605 5604 5602 5601 5599 5598 5597 5596 5594 5593 5592 5591 5590 5589 5588 5587 5586 5585 5584 5583 5582 5582 5581 5581 5581 5581 5582 5583 5584 5585 5586 5587 5588 5589 5590 5590 5591
5608 5606 5604 5603 5601 5599 5598 5596 5594 5593 5592 5591 5589 5588 5586 5585 5584 5583 5582 5581 5580 5579 5577 5576 5575 5574 5574 5573 5572 5572 5572 5572 5573 5573 5574 5575 5576 5577 5578 5579 5579 5580 5581
5600 5598 5597 5595 5593 5592 5590 5589 5587 5586 5584 5583 5582 5580 5579 5578 5576 5575 5574 5573 5571 5570 5569 5567 5566 5565 5564 5564 5563 5563 5563 5563 5563 5563 5564 5565 5566 5567 5568 5569 5570 5571 5571
5592 5590 5589 5587 5586 5584 5583 5581 5580 5578 5577 5576 5574 5573 5572 5570 5569 5567 5566 5564 5563 5562 5560 5559 5558 5557 5555 5555 5554 5554 5553 5554 5554 5554 5555 5555 5557 5557 5558 5559 5560 5561 5562
5585 5583 5581 5580 5578 5577 5575 5574 5572 5570 5569 5568 5567 5565 5564 5562 5561 5559 5558 5556 5555 5553 5552 5550 5549 5548 5547 5546 5545 5545 5545 5545 5545 5545 5545 5546 5547 5548 5549 5549 5550 5551 5552
5578 5576 5574 5573 5571 5570 5568 5567 5565 5563 5562 5560 5559 5558 5556 5555 5553 5551 5549 5548 5546 5545 5544 5542 5541 5540 5539 5538 5537 5537 5536 5536 5536 5536 5537 5537 5538 5539 5539 5540 5540 5541 5542